Location: Unspecified
(0.0000°N, 0.0000°E)
Time: 07:07:11
(UTC+00:00)

Vanguard 1 - Visible Passes

Search period start: 26 June 2017 00:00
Search period end: 06 July 2017 00:00
Orbit: 654 x 3830 km, 34.2° (Epoch: 25 June)

Date Brightness Start Highest point End Pass type
(mag) Time Alt. Az. Time Alt. Az. Time Alt. Az.
26 Jun 13.0 02:09:49 49° SSE 02:10:22 49° SSE 02:29:09 10° ENE visible
26 Jun 12.5 04:22:33 28° WSW 04:37:57 79° NW 04:52:55 10° NE visible
26 Jun 12.7 18:55:06 10° SW 19:00:32 18° SSW 19:08:07 10° SSE visible
26 Jun 13.5 21:22:50 10° SSW 21:23:33 11° SSW 21:23:33 11° SSW visible
27 Jun 14.0 00:17:01 15° ESE 00:17:01 15° ESE 00:20:17 10° ESE visible
27 Jun 12.8 02:29:44 58° SSE 02:32:37 60° SE 02:51:25 10° ENE visible
27 Jun 12.6 04:42:28 22° WSW 04:59:27 63° NW 05:13:52 10° NE visible
27 Jun 13.0 19:18:36 10° SW 19:23:05 14° S 19:28:44 10° SSE visible
28 Jun 13.8 00:36:55 23° ESE 00:36:55 23° ESE 00:44:36 10° E visible
28 Jun 12.7 02:49:39 62° SSW 02:54:39 73° SE 03:13:15 10° ENE visible
28 Jun 12.8 05:02:22 15° WSW 05:20:54 50° NW 05:34:36 10° NNE visible
28 Jun 13.2 19:42:58 10° SSW 19:45:54 11° S 19:49:14 10° SSE visible
29 Jun 13.5 00:56:47 32° ESE 00:56:47 32° ESE 01:08:10 10° E visible
29 Jun 12.6 03:09:30 59° SW 03:16:30 87° SE 03:34:46 10° NE visible
29 Jun 13.0 05:22:59 10° W 05:42:24 39° NW 05:55:11 10° NNE visible
30 Jun 13.2 01:16:36 44° ESE 01:16:36 44° ESE 01:31:06 10° ENE visible
30 Jun 12.6 03:29:20 50° WSW 03:38:14 78° NW 03:56:00 10° NE visible
01 Jul 12.9 01:36:23 57° ESE 01:36:23 57° ESE 01:53:30 10° ENE visible
01 Jul 12.8 03:49:06 40° WSW 03:59:54 64° NW 04:17:02 10° NE visible
01 Jul 14.1 23:43:25 13° E 23:43:25 13° E 23:45:17 10° E visible
02 Jul 12.7 01:56:06 73° ESE 01:56:06 73° ESE 02:15:28 10° ENE visible
02 Jul 12.9 04:08:49 30° W 04:21:34 51° NW 04:37:53 10° NE visible
03 Jul 13.9 00:03:05 21° E 00:03:05 21° E 00:09:06 10° E visible
03 Jul 12.6 02:15:47 88° SSW 02:16:09 89° SE 02:37:04 10° NE visible
03 Jul 13.2 04:28:29 21° W 04:43:21 40° NW 04:58:36 10° NNE visible
04 Jul 13.6 00:22:43 31° E 00:22:43 31° E 00:32:13 10° ENE visible
04 Jul 12.6 02:35:25 73° W 02:37:57 77° NW 02:58:25 10° NE visible
04 Jul 13.4 04:48:06 12° W 05:05:19 32° NW 05:19:12 10° NNE visible
05 Jul 13.3 00:42:17 42° E 00:42:17 42° E 00:54:46 10° ENE visible
05 Jul 12.8 02:54:58 57° WNW 02:59:46 63° NW 03:19:32 10° NE visible
05 Jul 13.6 05:11:20 10° W 05:27:34 25° NNW 05:39:44 10° NNE visible
05 Jul13.922:49:07E22:49:07E22:08:59SSWvisible
